Regional Weather Roundup
Issued by NWS

Home | Current Version | Previous Version | Text Only | Print | Product List | Glossary Off
Versions: 1 2 3 4 5 6 7 8 9 10 11 12 13 14 15 16 17 18 19 20 21 22 23 24 25 26 27 28 29 30 31 32 33 34 35 36 37 38 39 40 41 42 43 44 45 46 47 48 49 50

000
ASUS44 KMEG 082110
RWRTN
TENNESSEE HOURLY STATE WEATHER ROUNDUP
NATIONAL WEATHER SERVICE MEMPHIS TN
300 PM CST THU DEC 08 2016

TNZ002-004-019-021-049-052-054-088>092-082200-
WEST TENNESSEE

CITY           SKY/WX    TMP DP  RH WIND       PRES   REMARKS
MEMPHIS INTL   CLOUDY    37  17  44 N10       30.50R WCI  30
NWS MEMPHIS      N/A     37 N/A N/A MISG        N/A
JACKSON        MOSUNNY   36  16  44 NW17      30.48R WCI  26
DYERSBURG      CLOUDY    34  16  47 NW10      30.49S WCI  26
UNION CITY     SUNNY     32  16  51 CALM      30.47R
PARIS          SUNNY     30  12  47 VRB6      30.45R WCI  24
HUNTINGDON     SUNNY     36  16  44 NW9G15    30.45R WCI  29
LEXINGTON      SUNNY     36   9  32 NW13      30.43R WCI  27
$$

TNZ008-025-027-028-033-062-065-066-082200-
NORTH MIDDLE TENNESSEE

CITY           SKY/WX    TMP DP  RH WIND       PRES   REMARKS
NASHVILLE      PTSUNNY   38  13  35 NW8       30.41R WCI  32
PORTLAND       SUNNY     34  16  47 NW10      30.39S WCI  26
CLARKSVILLE    MOSUNNY   35  12  38 NW10      30.43R WCI  27
SMYRNA         MOSUNNY   38  15  39 N13       30.41R WCI  30
GALLATIN       SUNNY     37  16  41 NW13      30.43R WCI  29
CROSSVILLE     SUNNY     37  13  37 NW10      30.29R WCI  30
$$

TNZ061-075-076-078-094-096-097-082200-
SOUTH MIDDLE TENNESSEE

CITY           SKY/WX    TMP DP  RH WIND       PRES   REMARKS
FAYETTEVILLE   SUNNY     41  18  38 NW7G13    30.36S
TULLAHOMA      SUNNY     39  16  38 NW12      30.36R WCI  32
WINCHESTER     SUNNY     39  19  45 VRB6      30.36S WCI  35
MCMINNVILLE    SUNNY     39  16  38 NW10        N/A  WCI  32
COLUMBIA       SUNNY     39  18  41 NW9       30.38R WCI  33
SHELBYVILLE    SUNNY     43  18  36 NW13      30.38R
$$

TNZ017-018-042-046-047-082200-
NORTHEAST TENNESSEE

CITY           SKY/WX    TMP DP  RH WIND       PRES   REMARKS
TRI CITIES     MOSUNNY   42  10  27 NW15      30.21R
ELIZABETHTON   DRIZZLE   41  12  30 NW13G21   30.19S
$$

TNZ012-013-036-069-073-074-082200-
CENTRAL EAST TENNESSEE

CITY           SKY/WX    TMP DP  RH WIND       PRES   REMARKS
KNOXVILLE      PTSUNNY   42  17  36 W12       30.28R
OAK RIDGE      SUNNY     44  11  26 W10G17    30.31R
DOWNTOWN KNOXV SUNNY     45  12  26 VRB6G15   30.29R
GATLINBURG     SUNNY     43  12  28 W8        30.27R
MORRISTOWN     SUNNY     41  14  33 NW12      30.25R
JACKSBORO      SUNNY     41  14  33 VRB5G16   30.32R
$$

TNZ083-085-099-082200-
SOUTHEAST TENNESSEE

CITY           SKY/WX    TMP DP  RH WIND       PRES   REMARKS
CHATTANOOGA    PTSUNNY   45  16  31 NW10      30.34R
$$

SKY/WX REPORTED AS FAIR MEANS FEW OR NO CLOUDS BELOW
12 THOUSAND FEET.




USA.gov is the U.S. government's official web portal to all federal, state and local government web resources and services.